Regional Weather Roundup
Issued by NWS

Home | Current Version | Previous Version | Text Only | Print | Product List | Glossary Off
Versions: 1 2 3 4 5 6 7 8 9 10 11 12 13 14 15 16 17 18 19 20 21 22 23 24 25 26 27

000
ASUS45 KCYS 191910
RWRWY

WYOMING REGIONAL WEATHER ROUNDUP
NATIONAL WEATHER SERVICE CHEYENNE WY
1200 PM MST SUN NOV 19 2017

NOTE:  "FAIR" INDICATES FEW OR NO CLOUDS BELOW 12,000 FEET
WITH NO SIGNIFICANT WEATHER AND/OR OBSTRUCTIONS TO VISIBILITY.

WYZ001-192000-
YELLOWSTONE NATIONAL PARK

CITY           SKY/WX    TMP DP  RH WIND       PRES   REMARKS
LK YELLOWSTONE   N/A     24  14  65 CALM      30.14F
W YELLOWSTONE  NOT AVBL

$$
WYZ002>013-054>058-071-098>099-192000-
NORTHERN WYOMING

CITY           SKY/WX    TMP DP  RH WIND       PRES   REMARKS
JACKSON        FAIR      28  16  59 CALM      30.20
CODY           FAIR      41  11  29 CALM      29.96F
GREYBULL       FAIR      32  22  66 CALM      29.99F
WORLAND        FAIR      34  23  64 S5        29.98F WCI  30
SHERIDAN       FAIR      43  27  53 CALM      29.86F
BUFFALO        FAIR      35  21  56 SW3       29.88F
GILLETTE       FAIR      51  14  22 SW20      29.87F
HULETT         FAIR      45  18  33 SW10      29.90F
NEWCASTLE      FAIR      41  18  38 E13       29.97F

$$
WYZ014>020-022>026-101>103-192000-
CENTRAL WYOMING

CITY           SKY/WX    TMP DP  RH WIND       PRES   REMARKS
BIG PINEY      FAIR      21  16  81 NW5       30.19F WCI  15
PINEDALE       FAIR      32  12  43 CALM      30.17F
DUBOIS         FAIR      37   7  28 N16G24    30.02F WCI  28
LANDER         FAIR      27  18  69 SE5       30.03F WCI  22
RIVERTON       FAIR      27  20  75 SE3       30.04F
CASPER         FAIR      42  17  36 SW28G37   30.03F
DOUGLAS        FAIR      45  21  38 W8        29.99F

$$
WYZ021-027>030-104>119-192000-
SOUTHERN WYOMING

CITY           SKY/WX    TMP DP  RH WIND       PRES   REMARKS
EVANSTON       FAIR      24  18  77 SW8       30.20F WCI  15
KEMMERER       FAIR      32  12  43 CALM      30.19
FORT BRIDGER   FAIR      29  17  58 CALM      30.22F
ROCK SPRINGS   FAIR      24  16  71 CALM      30.20F
DIXON          FAIR      29  19  63 NW5       30.26F WCI  24
RAWLINS        FAIR      36  32  85 S22G29    30.16F WCI  25
SARATOGA       FAIR      34  18  51 S10       30.19F WCI  26
LARAMIE        FAIR      39  14  36 SW22      30.11F WCI  29
CHEYENNE       FAIR      50   5  16 W26G37    30.06F
TORRINGTON     FAIR      55   9  16 W17G25    29.99F
PINE BLUFFS    FAIR      55   7  14 W17G26    30.04F

$$




USA.gov is the U.S. government's official web portal to all federal, state and local government web resources and services.